GW0270 Weather Reports


Display with metric or nautical units.
time (UTC)temp
F
wind
direction
speed
MPH
gust
MPH
rain 1hr
in
rain 24hr
in
rain mn
in
humidity
%
barometer
mb
20260504141017 59 293 8.0 24.0 0.00 0.00 0.00 49 1006.7
20260504140511 59 254 9.0 24.0 0.00 0.00 0.00 50 1006.7
20260504130511 49 274 0.0 6.0 0.00 0.00 0.00 71 1007.4
20260504110513 41 0 0.0 0.0 0.00 0.00 0.00 78 1008.2
20260504100514 42 0 0.0 0.0 0.00 0.00 0.00 79 1007.9
20260504081529 40 0 0.0 4.0 0.00 0.00 0.00 85 1008.1
20260504081018 39 0 1.0 4.0 0.00 0.00 0.00 85 1008.0
20260504080511 39 0 0.0 3.0 0.00 0.00 0.00 85 1008.1
20260504080116 39 167 0.0 2.0 0.00 0.00 0.00 85 1008.1
20260504050517 37 0 0.0 0.0 0.00 0.00 0.00 79 1008.3
20260504045510 36 0 0.0 0.0 0.00 0.00 0.00 79 1008.3
20260504045016 36 0 0.0 0.0 0.00 0.00 0.00 79 1008.4
20260504044530 36 0 0.0 0.0 0.00 0.00 0.00 79 1008.5
20260504044011 36 0 0.0 0.0 0.00 0.00 0.00 78 1008.6
20260504043515 36 0 0.0 0.0 0.00 0.00 0.00 78 1008.5
20260504043028 36 0 0.0 0.0 0.00 0.00 0.00 78 1008.6
20260504042512 36 0 0.0 0.0 0.00 0.00 0.00 77 1008.5
20260504042010 36 0 0.0 0.0 0.00 0.00 0.00 77 1008.6
20260504041530 36 0 0.0 0.0 0.00 0.00 0.00 77 1008.4
20260504041010 36 0 0.0 0.0 0.00 0.00 0.00 78 1008.5
20260504040513 36 0 0.0 0.0 0.00 0.00 0.00 78 1008.4
20260504040048 36 0 0.0 0.0 0.00 0.00 0.00 76 1008.5
20260504035515 36 0 0.0 0.0 0.00 0.00 0.00 75 1008.4
20260504035013 36 0 0.0 0.0 0.00 0.00 0.00 74 1008.5
20260504034532 36 0 0.0 0.0 0.00 0.00 0.00 73 1008.3
20260504034010 36 0 0.0 0.0 0.00 0.00 0.00 72 1008.3
20260504033513 36 0 0.0 0.0 0.00 0.00 0.00 72 1008.4
20260504033028 36 0 0.0 0.0 0.00 0.00 0.00 72 1008.5
20260504032511 36 0 0.0 0.0 0.00 0.00 0.00 72 1008.5
20260504032013 36 0 0.0 0.0 0.00 0.00 0.00 72 1008.5
20260504031528 36 0 0.0 0.0 0.00 0.00 0.00 71 1008.5
20260504031010 37 0 0.0 0.0 0.00 0.00 0.00 70 1008.5
20260504030513 37 0 0.0 0.0 0.00 0.00 0.00 70 1008.5
20260504030028 37 0 0.0 0.0 0.00 0.00 0.00 70 1008.6
20260504025511 37 0 0.0 0.0 0.00 0.00 0.00 71 1008.6
20260504025013 37 0 0.0 0.0 0.00 0.00 0.00 69 1008.5
20260504024530 37 0 0.0 0.0 0.00 0.00 0.00 68 1008.5
20260504024014 38 0 0.0 0.0 0.00 0.00 0.00 68 1008.5
20260504023514 38 0 0.0 0.0 0.00 0.00 0.00 69 1008.5
20260504023030 38 0 0.0 0.0 0.00 0.00 0.00 67 1008.6
20260504022511 38 0 0.0 0.0 0.00 0.00 0.00 67 1008.7
20260504022011 38 0 0.0 0.0 0.00 0.00 0.00 67 1008.6
20260504021531 38 0 0.0 0.0 0.00 0.00 0.00 66 1008.5
20260504021013 39 0 0.0 0.0 0.00 0.00 0.00 66 1008.5
20260504020512 39 0 0.0 0.0 0.00 0.00 0.00 65 1008.5
20260504020028 39 0 0.0 0.0 0.00 0.00 0.00 65 1008.5
20260504015510 39 0 0.0 0.0 0.00 0.00 0.00 64 1008.5
20260504015013 40 0 0.0 0.0 0.00 0.00 0.00 64 1008.3
20260504014528 40 0 0.0 0.0 0.00 0.00 0.00 64 1008.3
20260504014012 41 0 0.0 0.0 0.00 0.00 0.00 62 1008.2
20260504013512 41 0 0.0 0.0 0.00 0.00 0.00 61 1008.1
20260504013028 41 0 0.0 0.0 0.00 0.00 0.00 61 1008.1
20260504012514 42 0 0.0 0.0 0.00 0.00 0.00 60 1008.1
20260504012017 42 0 0.0 0.0 0.00 0.00 0.00 61 1008.0
20260504011529 42 0 0.0 0.0 0.00 0.00 0.00 60 1007.9
20260504011010 43 0 0.0 0.0 0.00 0.00 0.00 58 1007.8
20260504010511 43 0 0.0 0.0 0.00 0.00 0.00 58 1007.8
20260504010030 43 0 0.0 0.0 0.00 0.00 0.00 57 1007.6
20260504005511 44 0 0.0 0.0 0.00 0.00 0.00 57 1007.5
20260504005013 44 0 0.0 0.0 0.00 0.00 0.00 56 1007.5
20260504004541 44 0 0.0 0.0 0.00 0.00 0.00 54 1007.3
20260504004012 45 0 0.0 0.0 0.00 0.00 0.00 53 1007.3
20260504003514 45 0 0.0 0.0 0.00 0.00 0.00 52 1007.4
20260504003030 46 0 0.0 0.0 0.00 0.00 0.00 52 1007.3
20260504002514 46 0 0.0 0.0 0.00 0.00 0.00 52 1007.3
20260504002015 46 0 0.0 0.0 0.00 0.00 0.00 49 1007.3
20260504001528 47 0 0.0 0.0 0.00 0.00 0.00 51 1007.2
20260504001013 47 0 0.0 0.0 0.00 0.00 0.00 50 1007.1
20260504000513 48 0 0.0 0.0 0.00 0.00 0.00 49 1007.2
20260504000028 48 0 0.0 0.0 0.00 0.00 0.00 47 1007.0
20260503235511 48 0 0.0 0.0 0.00 0.00 0.00 47 1007.1
20260503235013 49 0 0.0 2.0 0.00 0.00 0.00 47 1007.0
20260503234533 49 0 0.0 2.0 0.00 0.00 0.00 47 1007.0
20260503234014 49 311 0.0 2.0 0.00 0.00 0.00 47 1006.9
20260503233510 49 0 0.0 7.0 0.00 0.00 0.00 46 1006.9
20260503233029 49 0 0.0 9.0 0.00 0.00 0.00 46 1006.8
20260503232511 49 311 2.0 9.0 0.00 0.00 0.00 46 1006.7
20260503232012 49 0 1.0 8.0 0.00 0.00 0.00 43 1006.7
20260503231528 49 0 0.0 9.0 0.00 0.00 0.00 45 1006.7
20260503231014 49 241 1.0 9.0 0.00 0.00 0.00 45 1006.7
20260503230514 49 297 3.0 11.0 0.00 0.00 0.00 44 1006.7
20260503230033 49 0 3.0 11.0 0.00 0.00 0.00 44 1006.6
20260503225513 49 293 1.0 11.0 0.00 0.00 0.00 45 1006.7
20260503225014 49 272 2.0 5.0 0.00 0.00 0.00 46 1006.8
20260503224530 50 0 0.0 3.0 0.00 0.00 0.00 47 1006.7
20260503224013 49 0 0.0 12.0 0.00 0.00 0.00 46 1006.6
20260503223514 50 0 1.0 12.0 0.00 0.00 0.00 45 1006.6
20260503223028 50 304 4.0 15.0 0.00 0.00 0.00 43 1006.5
20260503222513 50 290 5.0 15.0 0.00 0.00 0.00 45 1006.6
20260503222012 50 278 9.0 15.0 0.00 0.00 0.00 43 1006.6
20260503221530 50 260 7.0 14.0 0.00 0.00 0.00 44 1006.6
20260503221012 50 306 4.0 13.0 0.00 0.00 0.00 46 1006.6
20260503220519 51 286 4.0 13.0 0.00 0.00 0.00 44 1006.7
20260503220029 51 0 2.0 13.0 0.00 0.00 0.00 47 1006.5
20260503215512 50 243 1.0 8.0 0.00 0.00 0.00 48 1006.4
20260503215010 50 294 4.0 18.0 0.00 0.00 0.00 45 1006.6
20260503214528 50 259 4.0 18.0 0.00 0.00 0.00 46 1006.5
20260503214016 50 269 4.0 13.0 0.00 0.00 0.00 48 1006.5
20260503213514 50 273 6.0 13.0 0.00 0.00 0.00 48 1006.4
20260503213028 50 302 5.0 13.0 0.00 0.00 0.00 46 1006.4
20260503212516 49 288 3.0 13.0 0.00 0.00 0.00 49 1006.4
20260503212014 49 250 4.0 14.0 0.00 0.00 0.00 46 1006.6
20260503211527 49 294 7.0 14.0 0.00 0.00 0.00 46 1006.6
20260503211020 49 302 6.0 13.0 0.00 0.00 0.00 48 1006.5
20260503210510 49 294 5.0 11.0 0.00 0.00 0.00 47 1006.5
20260503210029 49 304 3.0 10.0 0.00 0.00 0.00 47 1006.5
20260503205517 49 259 5.0 10.0 0.00 0.00 0.00 48 1006.5
20260503205011 49 311 2.0 12.0 0.00 0.00 0.00 48 1006.5
20260503204534 49 311 1.0 12.0 0.00 0.00 0.00 50 1006.5
20260503204016 49 278 2.0 11.0 0.00 0.00 0.00 48 1006.5
20260503203516 49 317 3.0 11.0 0.00 0.00 0.00 47 1006.6
20260503203031 49 298 1.0 14.0 0.00 0.00 0.00 47 1006.5
20260503202513 49 288 3.0 14.0 0.00 0.00 0.00 46 1006.4
20260503202012 49 302 9.0 14.0 0.00 0.00 0.00 44 1006.4
20260503201532 49 321 4.0 13.0 0.00 0.00 0.00 46 1006.4
20260503201011 49 327 2.0 12.0 0.00 0.00 0.00 50 1006.5
20260503200513 49 0 5.0 12.0 0.00 0.00 0.00 45 1006.6
20260503200030 49 197 5.0 15.0 0.00 0.00 0.00 47 1006.6
20260503195513 49 296 9.0 16.0 0.00 0.00 0.00 45 1006.7
20260503195013 49 276 8.0 16.0 0.00 0.00 0.00 46 1006.7
20260503194531 50 292 9.0 16.0 0.00 0.00 0.00 45 1006.7
20260503194014 50 335 8.0 16.0 0.00 0.00 0.00 45 1006.9
20260503193517 50 301 8.0 16.0 0.00 0.00 0.00 47 1006.8
20260503193038 49 300 4.0 13.0 0.00 0.00 0.00 47 1006.7
20260503192513 49 291 7.0 15.0 0.00 0.00 0.00 46 1006.8
20260503192014 49 288 7.0 18.0 0.00 0.00 0.00 46 1006.7
20260503191530 49 299 9.0 18.0 0.00 0.00 0.00 45 1006.8
20260503191014 49 278 9.0 15.0 0.00 0.00 0.00 44 1006.9
20260503190513 49 294 5.0 14.0 0.00 0.00 0.00 49 1006.9
20260503190032 49 290 5.0 16.0 0.00 0.00 0.00 48 1006.8
20260503185514 49 319 7.0 16.0 0.00 0.00 0.00 45 1006.7
20260503185017 49 316 8.0 13.0 0.00 0.00 0.00 45 1006.8
20260503184530 49 298 5.0 19.0 0.00 0.00 0.00 46 1006.9
20260503184014 49 302 10.0 19.0 0.00 0.00 0.00 45 1006.8
20260503183512 49 281 9.0 15.0 0.00 0.00 0.00 45 1006.7
20260503183030 50 325 8.0 14.0 0.00 0.00 0.00 46 1006.7
20260503182512 50 305 8.0 14.0 0.00 0.00 0.00 44 1006.7
20260503182013 50 303 10.0 14.0 0.00 0.00 0.00 43 1006.5
20260503181528 51 309 6.0 18.0 0.00 0.00 0.00 48 1006.5
20260503181014 51 233 6.0 18.0 0.00 0.00 0.00 49 1006.4
20260503180511 51 310 7.0 18.0 0.00 0.00 0.00 47 1006.4
20260503180032 52 259 7.0 18.0 0.00 0.00 0.00 47 1006.2
20260503175511 52 255 7.0 20.0 0.00 0.00 0.00 49 1006.2
20260503175010 50 292 10.0 20.0 0.00 0.00 0.00 46 1006.2
20260503174532 50 297 10.0 18.0 0.00 0.00 0.00 43 1006.3
20260503174014 50 305 5.0 17.0 0.00 0.00 0.00 49 1006.3
20260503173511 50 320 7.0 17.0 0.00 0.00 0.00 46 1006.4
20260503173029 50 295 8.0 16.0 0.00 0.00 0.00 48 1006.2
20260503172511 50 315 10.0 21.0 0.00 0.00 0.00 46 1006.2
20260503172013 49 288 9.0 21.0 0.00 0.00 0.00 47 1006.2
20260503171528 50 319 9.0 18.0 0.00 0.00 0.00 46 1006.1
20260503171014 50 261 8.0 19.0 0.00 0.00 0.00 43 1006.3
20260503170514 51 297 10.0 19.0 0.00 0.00 0.00 43 1006.3
20260503151011 47 323 3.0 13.0 0.00 0.07 0.00 61 1006.9
20260503150510 47 297 4.0 14.0 0.00 0.07 0.00 61 1007.0